星链-4151 (STARLINK-4151 )

导读 | 星芒AI

STARLINK-4151 是 SpaceX Starlink 卫星互联网项目中的一颗低轨卫星。该卫星属于 Starlink 群体部署的一部分,旨在为全球用户提供高速互联网服务。它运行在约 550 公里的轨道高度,采用先进通信技术,支持宽带连接。该卫星的发射有助于扩大 Starlink 的覆盖范围,提升网络性能,并为偏远地区提供稳定的网络接入。作为 SpaceX 扩展其太空互联网基础设施计划的一部分,STARLINK-4151 对实现全球互联目标具有重要意义。

基本信息
目录编号:
53034
目录名称:
STARLINK-4151
国际标识:
2022-076BA
轨道中心:
EARTH
卫星名称:
星链-4151
卫星全名:
星链-4151 (STARLINK-4151 )
卫星状态:
在轨 (已飞行1217 天)
发射日期:
2022-07-07 UTC
国别 :
美国 (US)
星等 :
--
轨道信息
数据来源 国际轨道数据
星历时间: 2025-11-04T12:11:27+0800
22小时前
查看轨道信息
半长轴: 6917.908km
偏心率: 0.0001413
轨道倾角: 53.216°
近地点辐角 99.130°
升交点赤经 277.627°
平近点角 260.986°
近地点: 538.795km
远地点: 540.751km
周期: 95.438分钟
每日圈数: 15.088312
详细信息
固有亮度:
5
最大亮度:
2.5
卫星平台:
Starlink v1.5
覆盖范围:
全球
运营商:
太空探索技术公司
运营商所在国:
美国
制造商(研发单位):
太空探索技术公司
制造商所在国:
美国
使用方式:
暂无
卫星简介
星链(Starlink)计划是由太空探索技术公司(SpaceX)提出的一个巨型低轨卫星互联网星座项目,计划在2019年至2024年间在太空搭建由约1.2万颗卫星组成的“星链”网络,其中1584颗将部署在地球上空550千米处的近地轨道,并从2020年开始工作。该卫星仍在工作。
2D轨道图
3D轨道图
轨道高度分析图
轨道倾角分析图
轨道综合分析图
查看轨道综合分析图